FENGYUN 1C DEB, 38498

Orbit data source: Space-Track

FENGYUN 1C DEB, 38498 is space debris in SSO originally from a launch on Mon, 10 May 1999 UTC launched from the Taiyaun Space Center, China (TSC). Fengyun 1C debris stems from the Chinese weather satellite Fengyun-1C, which was intentionally destroyed by a Chinese anti-satellite missile in 2007. This event dramatically increased the amount of space debris, with thousands of trackable fragments posing hazards to satellites and human spaceflight. The Fengyun 1C debris cloud has become a focal point in discussions about space sustainability and the need for international regulations to prevent the creation of new debris.

Loading next visibility...
Identifier
38498, 1999-025ESH
Orbit
SSO
Country
Flag of CNCN / PRC
Related business
Manufacturer
Unknown
Mission
Spacecraft
Bus & Motor
Unknown
Mass
Unknown
Launch date (UTC)
1999-05-10 (27 years ago)
Launch vehicle
Unknown
Launch site
Taiyaun Space Center, China (TSC)
Object type
Payload
Rocket body
Debris
Shape & HBR
Unknown shape, 0.1 m
Radar Cross Section
Small (<0.1 m²)

Expand to show TLE details & history
Last TLE update: 3 weeks ago

TLE from 3 weeks ago
0 FENGYUN 1C DEB
1 38498U 99025ESH 26185.24616009  .00000828  00000-0  14823-2 0  9995
2 38498  99.6915 188.4165 0554438 329.6523  27.3532 12.96971018563814
Epoch: 2026-07-04T05:54Z
TLE epoch observation values (Epoch: 2026-07-04T05:54:28.231Z)
Latitude
-0.00002°
Longitude
177.53627°
Altitude
905.176 km
Speed
7.577 km/s
True Right ascension
12h 33m 39s
True Declination
0° 00' 00"
Sunlit
Object was in daylight at epoch
Visualization orbit readout
Latitude
Unknown
Longitude
Unknown
Altitude
Unknown
Speed
Unknown
Apparent Right ascension
Unknown
Apparent Declination
Unknown
Sunlit
N/A
Visualization observer readout
Local Sidereal Time
12:36:47
Azimuth
Unknown
Elevation
Unknown
Doppler factor
Unknown
Orbital elements
Apogee altitude
1,695.457 km
Perigee altitude
847.225 km
Semi-major axis
7,649.478 km
Eccentricity
0.05544
Inclination
99.6915°
RAAN
188.4165°
Arg. of periapsis
329.6523°
True anomaly
30.46182°
Mean anomaly
27.3532°
Eccentric anomaly
28.88785°
Mean motion
3.24411 °/min
Orbital period
110.97 mins
BSTAR
0.0014823
Loading maneuver chart data...
Computing Atmospheric mass density...
Loading historical data...
Loading historical data...
Loading historical data...
Loading historical data...
Loading historical data...
Loading historical data...
Loading historical data...

Documentation

Showing up to 5 results
|